User: anonymous   Login
Location: Azul
(36.7830°S, 59.8500°W)
Time: 20:26:14
(UTC-03:00)
Language:

BUGSAT 1 - Orbit

View from above orbital plane
View from above orbital plane
View from above satellite
View from above satellite

Ground track
Ground track

The orbit data is extracted from the following two-line orbital elements,

1 40014U 14033E   22148.61308341  .00003815  00000-0  33665-3 0  9996
2 40014  98.1406 146.2114 0032627 102.5533 257.9338 14.96638069433174
Epoch (UTC): 28 May 2022 14:42:50
Eccentricity: 0.0032627
inclination: 98.1406°
perigee height: 554 km
apogee height: 600 km
right ascension of ascending node: 146.2114°
argument of perigee: 102.5533°
revolutions per day: 14.96638069
mean anomaly at epoch: 257.9338°
orbit number at epoch: 43317

The dashed part of the orbit path shows where the satellite is in the earth's shadow,  

DLR